This demonstration page uses our WeatherBlox Daily Observations layout. Learn more.

38.89511, -77.03637

Hourly Observations for June 15, 2015

Temp ( °F °C ) Dew Point ( °F °C ) Humidity (%) Winds ( mph kmh ) Pressure ( in mb ) Visibility ( mi km ) Precip ( " mm )
12:52 am 00:52 Partly Cloudy 80 26.7 75 23.9 85 85 S 9 15 30.01 1016 9 14.48406 0 0
1:52 am 01:52 Mostly Cloudy 79 26.1 74 23.3 85 85 S 7 11 30 1016 10 16.0934 0 0
2:52 am 02:52 Mostly Cloudy 79 26.1 74 23.3 85 85 SSW 5 7 29.99 1016 10 16.0934 0 0
3:52 am 03:52 Cloudy 79 26.1 74 23.3 85 85 SSW 6 9 29.98 1015 10 16.0934 0 0
4:52 am 04:52 Mostly Cloudy 79 26.1 74 23.3 85 85 Calm 29.99 1016 10 16.0934 0 0
5:52 am 05:52 Cloudy 78 25.6 74 23.3 87 87 SSW 3 6 29.99 1016 10 16.0934 0 0
6:52 am 06:52 Cloudy 79 26.1 74 23.3 85 85 NW 6 9 30.01 1016 10 16.0934 0 0
7:52 am 07:52 Cloudy 81 27.2 73 22.8 77 77 NW 5 7 30.01 1016 10 16.0934 0 0
8:24 am 08:24 Cloudy with Light Rain 81 27 72 22 74 74 NNW 9 15 30 1016 10 16.0934 0 0
8:52 am 08:52 Cloudy 81 27.2 72 22.2 74 74 WNW 7 11 30.01 1016 10 16.0934 0 0.0254
9:52 am 09:52 Cloudy 84 28.9 72 22.2 67 67 NNW 7 11 30.01 1016 10 16.0934 0 0
10:52 am 10:52 Cloudy 85 29.4 72 22.2 65 65 WNW 5 7 30.01 1016 10 16.0934 0 0
11:52 am 11:52 Cloudy 87 30.6 71 21.7 59 59 W 9 15 30.01 1016 10 16.0934 0 0
12:52 pm 12:52 Cloudy 88 31.1 71 21.7 57 57 WNW 12 19 30 1016 10 16.0934 0 0
1:52 pm 13:52 Cloudy 90 32.2 71 21.7 54 54 WNW 12 19 29.99 1016 10 16.0934 0 0
2:52 pm 14:52 Mostly Cloudy 91 32.8 72 22.2 54 54 WNW 12 19 29.98 1015 10 16.0934 0 0
3:52 pm 15:52 Mostly Cloudy 93 33.9 72 22.2 50 50 W 10 17 29.96 1014 10 16.0934 0 0.0254
4:52 pm 16:52 Mostly Cloudy 93 33.9 71 21.7 49 49 W 6 9 29.94 1014 10 16.0934 0 0
5:52 pm 17:52 Mostly Cloudy 90 32 72 22 55 55 N 9 15 29.94 1014 10 16.0934 0 0
6:07 pm 18:07 Mostly Cloudy with Light Rain 88 31 73 23 62 62 NW 25 41 29.94 1014 9 14.48406 0 0.0254
6:13 pm 18:13 Mostly Cloudy with Heavy Rain 82 28 73 23 74 74 NNW 18 30 29.94 1014 1.75 2.816345 0.01 0.254
6:17 pm 18:17 Mostly Cloudy with Rain 81 27 73 23 79 79 NNW 12 19 29.94 1014 4 6.43736 0.07 1.778
6:20 pm 18:20 Mostly Cloudy with Light Rain 81 27 73 23 79 79 NNW 9 15 29.94 1014 7 11.26538 0 0
6:35 pm 18:35 Mostly Cloudy 81 27 73 23 79 79 NNW 15 24 29.94 1014 10 16.0934 0.07 1.778
6:52 pm 18:52 Mostly Cloudy 82 27.8 73 22.8 74 74 N 8 13 29.94 1014 10 16.0934 0.07 1.778
7:52 pm 19:52 Mostly Cloudy 83 28.3 71 21.7 67 67 Calm 29.93 1014 10 16.0934 0 0
8:52 pm 20:52 Mostly Cloudy 83 28.3 71 21.7 67 67 SW 6 9 29.96 1015 10 16.0934 0 0
9:52 pm 21:52 Mostly Cloudy 83 28.3 73 22.8 72 72 Calm 29.96 1015 10 16.0934 0 0
10:52 pm 22:52 Mostly Cloudy 82 27.8 72 22.2 72 72 S 7 11 29.97 1015 10 16.0934 0 0
11:52 pm 23:52 Partly Cloudy 80 26.7 72 22.2 76 76 SSW 6 9 29.98 1015 10 16.0934 0 0

Powered by AerisWeather